Vorticity
7 6 6 5 4 4 5 6 8 9 10 8 8 8 10 9 14 11 9 11 11 10 9 9 6 7 9 13 9 6 4 6 5 6 6 6 5 4 5 6 7 6 7 7
7 7 7 7 8 7 7 9 12 11 15 14 10 9 6 7 2 11 3 8 7 7 12 13 15 19 20 18 15 11 11 11 9 7 5 3 3 4 5 6 8 10 8 7
7 8 8 9 8 8 10 8 6 4 -0 -0 3 1 -3 2 1 2 -7 14 0 2 -2 3 2 -0 6 13 20 19 15 11 9 10 10 8 8 8 9 7 4 5 5 5
8 10 8 5 4 4 3 3 3 6 6 4 4 10 -15 14 15 7 5 8 13 11 4 -3 -1 -4 6 -1 -1 4 11 16 13 10 10 8 6 7 9 9 8 8 8 9
3 5 4 5 7 2 2 2 1 3 2 3 -3 7 26 3 2 8 6 5 1 -3 -2 -7 -0 5 15 12 7 3 5 4 14 12 12 8 10 10 6 10 11 5 4 3
5 5 6 4 1 4 4 2 0 -0 2 2 9 8 3 5 3 7 -4 1 5 -4 2 -0 -0 2 7 9 10 7 3 10 11 11 16 13 9 9 11 8 6 10 11 7
6 6 9 8 7 6 3 5 5 7 8 8 8 10 3 -16 2 6 5 3 3 -2 -1 0 -7 4 8 17 10 15 6 2 1 9 13 12 10 7 10 10 10 7 8 8
3 7 4 3 4 2 2 6 5 7 5 8 15 2 9 15 5 2 4 4 5 4 -4 1 6 3 -1 3 12 16 8 14 19 13 12 8 10 9 7 6 10 11 11 10
7 6 3 7 2 1 5 11 6 10 7 4 -0 9 -6 14 1 10 13 9 16 14 12 7 10 -1 5 2 1 11 15 19 21 11 10 20 11 8 9 7 9 9 8 7
8 12 7 9 5 10 6 10 6 5 4 6 5 -1 9 2 -2 1 4 -2 0 -2 12 18 15 20 19 30 33 38 38 29 26 14 27 20 5 6 5 7 8 10 7 8
7 11 11 10 9 9 7 3 6 6 6 5 7 -1 9 3 -1 -4 -4 11 18 17 39 43 46 45 45 41 32 15 18 15 11 16 14 22 15 10 5 5 9 7 6 4
15 11 9 7 11 7 5 7 5 4 6 3 2 4 2 3 3 6 4 55 46 52 38 43 42 35 42 47 46 25 23 6 13 1 9 11 20 27 12 18 15 9 5 7
11 11 13 10 12 7 2 4 10 12 9 3 1 1 5 10 5 16 36 48 20 28 29 10 20 -9 8 11 17 52 71 16 -4 -19 1 12 12 9 21 15 17 14 12 12
10 10 4 1 3 7 9 9 5 1 7 11 4 13 5 38 41 45 59 20 9 8 15 20 15 22 -3 2 25 6 33 90 24 0 14 11 9 -2 15 10 7 9 12 11
3 6 7 9 9 9 8 7 4 7 -2 12 8 2 41 28 21 32 6 12 18 18 17 16 15 24 16 10 -7 17 14 36 68 43 5 8 10 6 11 12 8 6 6 8
6 1 3 8 10 8 7 7 -1 15 8 7 24 22 27 21 25 5 8 -4 1 16 9 20 18 22 17 10 5 1 14 19 21 66 53 23 -20 12 11 11 6 9 8 11
1 2 10 10 5 7 -5 15 14 11 12 18 18 27 34 18 20 8 -1 0 4 0 0 8 18 15 22 19 7 14 5 3 29 22 53 62 18 39 22 5 6 7 15 19
9 13 7 9 10 4 17 15 11 9 18 34 29 29 20 16 11 9 3 8 11 8 8 12 16 11 8 18 15 2 6 8 25 14 10 76 7 -0 51 12 7 0 13 5
11 10 9 8 7 7 5 17 11 10 17 37 17 36 6 5 16 13 3 9 9 7 12 15 25 17 9 5 15 8 14 12 19 15 17 24 73 -32 21 26 28 4 7 7
13 13 5 8 12 16 16 7 9 5 33 29 15 9 2 9 11 12 16 3 15 15 9 3 12 27 28 9 2 26 8 3 12 9 10 21 59 29 27 -2 40 11 2 14
14 16 13 17 12 15 18 15 14 29 22 14 14 17 11 9 8 6 7 12 16 11 10 8 19 15 10 41 15 26 7 11 10 13 7 2 34 55 28 4 10 15 7 2
6 10 14 14 12 27 23 18 26 23 29 19 14 8 0 5 13 15 15 19 11 8 7 0 14 10 24 15 33 21 13 16 3 11 10 13 31 26 25 8 -0 33 8 10
8 1 13 10 22 8 23 11 21 23 20 15 15 14 13 6 4 1 12 10 13 7 10 3 10 -6 -3 7 34 28 29 10 4 16 7 10 32 37 24 34 -43 38 2 3
5 10 12 10 11 13 24 16 7 10 8 9 13 15 18 19 16 7 3 12 15 4 9 10 12 7 -9 7 27 16 41 13 15 14 4 18 25 36 11 15 16 9 13 5
5 6 10 14 7 10 30 11 7 9 12 16 15 17 13 12 11 5 5 10 5 -1 15 3 10 2 1 7 26 20 31 9 20 6 10 2 38 49 8 20 26 41 13 5
4 6 11 14 15 14 23 9 7 6 13 16 19 15 16 18 20 18 17 14 1 4 8 9 12 -0 3 15 27 23 30 27 6 20 5 17 56 24 23 22 0 40 29 6
Height
5873 5872 5870 5869 5867 5866 5864 5863 5862 5862 5861 5854 5855 5853 5857 5855 5853 5849 5847 5846 5843 5840 5838 5835 5834 5834 5834 5835 5832 5830 5829 5828 5828 5827 5827 5829 5829 5827 5827 5828 5829 5830 5830 5830
5870 5868 5866 5865 5863 5861 5859 5858 5856 5855 5854 5850 5847 5849 5846 5847 5846 5842 5839 5835 5833 5831 5827 5825 5823 5822 5821 5821 5820 5818 5816 5816 5813 5817 5816 5815 5815 5816 5817 5818 5820 5821 5820 5819
5865 5864 5862 5860 5858 5855 5854 5852 5851 5848 5848 5846 5840 5841 5839 5835 5833 5830 5829 5828 5825 5821 5818 5816 5813 5811 5809 5808 5807 5806 5804 5803 5801 5801 5803 5802 5803 5805 5807 5809 5808 5808 5807 5808
5862 5860 5858 5856 5853 5851 5850 5847 5844 5841 5838 5836 5834 5829 5831 5823 5817 5817 5817 5813 5810 5808 5805 5802 5800 5798 5796 5795 5794 5794 5792 5790 5788 5786 5787 5789 5789 5791 5794 5794 5794 5794 5795 5797
5857 5855 5853 5851 5848 5845 5843 5839 5836 5832 5829 5825 5827 5821 5817 5811 5803 5801 5800 5796 5791 5787 5786 5785 5783 5782 5778 5777 5777 5778 5777 5777 5776 5773 5773 5774 5776 5776 5776 5779 5781 5781 5783 5784
5853 5848 5847 5844 5841 5838 5834 5830 5827 5823 5819 5816 5810 5808 5808 5797 5791 5787 5781 5779 5776 5772 5769 5764 5762 5762 5760 5759 5757 5757 5758 5759 5759 5758 5758 5758 5760 5759 5761 5763 5766 5767 5770 5771
5845 5842 5840 5837 5834 5829 5826 5820 5815 5814 5806 5805 5797 5796 5795 5785 5780 5773 5768 5761 5756 5751 5747 5745 5741 5739 5734 5734 5735 5734 5735 5736 5738 5740 5740 5742 5745 5744 5744 5747 5750 5753 5756 5758
5838 5830 5832 5828 5826 5820 5813 5811 5806 5797 5796 5793 5790 5786 5786 5770 5756 5752 5746 5737 5732 5726 5722 5721 5716 5708 5704 5707 5709 5711 5712 5713 5714 5717 5720 5721 5724 5727 5729 5731 5736 5739 5742 5744
5828 5825 5822 5815 5813 5807 5800 5796 5792 5783 5778 5772 5771 5763 5763 5752 5738 5725 5720 5712 5702 5692 5694 5692 5685 5682 5677 5675 5675 5678 5681 5685 5689 5692 5696 5698 5701 5706 5711 5714 5718 5724 5727 5729
5818 5814 5813 5808 5803 5796 5793 5787 5781 5771 5760 5753 5756 5749 5745 5728 5717 5710 5701 5689 5678 5667 5678 5668 5655 5651 5648 5647 5643 5643 5646 5650 5657 5662 5668 5673 5677 5682 5690 5695 5700 5707 5712 5715
5809 5802 5799 5792 5787 5783 5778 5771 5763 5753 5743 5730 5724 5735 5724 5703 5688 5681 5672 5660 5643 5630 5631 5629 5623 5617 5612 5613 5611 5612 5622 5624 5628 5635 5641 5646 5652 5658 5666 5676 5682 5689 5694 5699
5797 5792 5787 5782 5777 5772 5765 5755 5745 5735 5733 5720 5701 5710 5705 5692 5676 5656 5641 5628 5615 5607 5602 5598 5595 5590 5586 5581 5581 5581 5594 5601 5605 5611 5618 5624 5630 5636 5645 5654 5665 5671 5677 5684
5786 5781 5775 5766 5761 5756 5750 5740 5729 5718 5706 5708 5682 5681 5678 5665 5652 5640 5625 5606 5596 5592 5590 5585 5583 5577 5573 5569 5564 5561 5562 5571 5574 5585 5595 5603 5610 5618 5627 5636 5644 5652 5661 5669
5777 5773 5767 5761 5753 5744 5737 5726 5719 5702 5694 5681 5668 5649 5647 5634 5621 5615 5608 5597 5587 5581 5577 5573 5570 5565 5561 5557 5551 5546 5544 5546 5550 5559 5574 5582 5589 5599 5610 5619 5627 5636 5645 5655
5769 5762 5754 5746 5739 5730 5723 5714 5704 5693 5679 5660 5654 5634 5625 5615 5604 5601 5593 5584 5577 5571 5568 5563 5557 5554 5550 5545 5539 5533 5530 5529 5529 5536 5548 5560 5572 5581 5591 5603 5614 5622 5632 5642
5756 5750 5743 5734 5726 5715 5707 5697 5686 5675 5663 5650 5633 5621 5611 5601 5595 5592 5583 5575 5567 5561 5557 5552 5547 5543 5539 5534 5528 5523 5518 5516 5515 5513 5526 5542 5552 5563 5575 5586 5599 5610 5619 5628
5744 5736 5727 5722 5711 5699 5692 5678 5666 5657 5644 5626 5613 5605 5596 5589 5585 5583 5571 5565 5560 5553 5547 5542 5537 5532 5527 5523 5518 5514 5508 5507 5505 5504 5506 5515 5534 5546 5559 5569 5583 5597 5607 5615
5730 5720 5709 5703 5694 5687 5671 5663 5647 5635 5626 5608 5598 5589 5583 5576 5570 5574 5562 5553 5547 5543 5536 5530 5525 5522 5518 5512 5508 5505 5501 5499 5496 5495 5495 5500 5510 5524 5540 5556 5566 5580 5593 5605
5716 5706 5693 5686 5679 5671 5661 5646 5632 5618 5613 5598 5583 5578 5573 5566 5558 5564 5551 5544 5536 5529 5526 5518 5512 5508 5507 5503 5498 5495 5493 5491 5489 5487 5487 5489 5496 5511 5524 5538 5548 5563 5577 5591
5705 5692 5682 5672 5660 5653 5646 5630 5619 5602 5591 5579 5573 5568 5561 5555 5546 5546 5542 5536 5529 5522 5515 5508 5502 5497 5494 5492 5487 5485 5483 5481 5480 5479 5480 5479 5484 5497 5511 5525 5535 5548 5561 5577
5689 5676 5666 5655 5644 5633 5619 5609 5597 5585 5578 5569 5565 5556 5549 5542 5537 5530 5526 5521 5517 5511 5506 5500 5493 5488 5483 5479 5475 5474 5473 5470 5471 5473 5473 5473 5475 5487 5499 5513 5524 5538 5551 5563
5679 5665 5655 5645 5629 5620 5604 5594 5583 5573 5563 5556 5549 5543 5535 5530 5525 5519 5513 5507 5503 5499 5496 5491 5484 5480 5475 5469 5464 5462 5463 5461 5460 5463 5465 5465 5469 5476 5489 5502 5518 5529 5541 5554
5665 5656 5647 5633 5624 5608 5597 5584 5576 5563 5552 5545 5537 5531 5523 5515 5511 5507 5502 5497 5492 5488 5484 5479 5474 5470 5466 5459 5452 5449 5449 5450 5451 5452 5454 5456 5460 5469 5481 5493 5508 5520 5533 5546
5654 5643 5633 5622 5616 5597 5586 5574 5565 5555 5545 5536 5527 5517 5509 5502 5496 5491 5487 5484 5479 5476 5471 5467 5462 5458 5454 5448 5443 5438 5436 5438 5441 5442 5443 5447 5450 5457 5473 5485 5500 5510 5525 5538
5644 5634 5622 5612 5599 5587 5577 5564 5554 5545 5535 5524 5515 5504 5496 5489 5481 5476 5469 5469 5464 5460 5457 5453 5449 5445 5442 5437 5432 5428 5425 5426 5429 5431 5431 5436 5441 5449 5463 5475 5490 5505 5517 5530
5632 5620 5608 5598 5587 5574 5566 5555 5544 5533 5522 5512 5499 5490 5484 5475 5465 5459 5452 5449 5446 5443 5442 5438 5435 5432 5429 5425 5421 5418 5416 5417 5419 5419 5419 5424 5431 5441 5456 5469 5485 5496 5508 5522